When you browse on this site, cookies collect data to enhance your experience and personalize the content and advertising you see.
Visit our Privacy Policy to learn more. By continuing to use the site, you agree to this use of cookies and data.

Météo par heure à Qui Nhon

Ce jour, 15 Juillet, Mercredi

Heure Température Précipitation Vent Pression Humidité
00:00 +28°C° 0 mm 3 m/s 754 mmHg 91%
01:00 +27°C° 0 mm 2 m/s 753 mmHg 91%
02:00 +27°C° 0 mm 2 m/s 753 mmHg 91%
03:00 +27°C° 0 mm 2 m/s 753 mmHg 90%
04:00 +27°C° 0 mm 1 m/s 753 mmHg 89%
05:00 +28°C° 0 mm 1 m/s 753 mmHg 87%
06:00 +28°C° 0 mm 1 m/s 753 mmHg 84%
07:00 +29°C° 0 mm 2 m/s 754 mmHg 77%
08:00 +31°C° 0 mm 2 m/s 754 mmHg 69%
09:00 +34°C° 0 mm 3 m/s 754 mmHg 61%
10:00 +36°C° 0 mm 4 m/s 754 mmHg 53%
11:00 +37°C° 0 mm 4 m/s 753 mmHg 51%
12:00 +39°C° 0 mm 5 m/s 753 mmHg 49%
13:00 +39°C° 0 mm 5 m/s 752 mmHg 47%
14:00 +37°C° 0 mm 5 m/s 752 mmHg 52%
15:00 +36°C° 0 mm 5 m/s 752 mmHg 57%
16:00 +35°C° 0 mm 5 m/s 751 mmHg 61%
17:00 +34°C° 0.4 mm 5 m/s 752 mmHg 69%
18:00 +32°C° 0.4 mm 5 m/s 752 mmHg 77%
19:00 +30°C° 0.4 mm 5 m/s 752 mmHg 85%
20:00 +29°C° 0.5 mm 5 m/s 753 mmHg 87%
21:00 +29°C° 0.5 mm 5 m/s 753 mmHg 90%
22:00 +28°C° 0.5 mm 5 m/s 754 mmHg 92%
23:00 +28°C° 0.9 mm 5 m/s 754 mmHg 92%

Demain, 16 Juillet, Jeudi

Heure Température Précipitation Vent Pression Humidité
00:00 +28°C° 0.9 mm 5 m/s 753 mmHg 92%
01:00 +28°C° 0.9 mm 4 m/s 753 mmHg 92%
02:00 +28°C° 0.1 mm 4 m/s 753 mmHg 92%
03:00 +28°C° 0.1 mm 4 m/s 753 mmHg 92%
04:00 +27°C° 0.1 mm 4 m/s 753 mmHg 92%
05:00 +28°C° 0 mm 3 m/s 753 mmHg 90%
06:00 +29°C° 0 mm 3 m/s 753 mmHg 87%
07:00 +29°C° 0 mm 2 m/s 754 mmHg 85%
08:00 +31°C° 0 mm 3 m/s 754 mmHg 74%
09:00 +35°C° 0 mm 3 m/s 754 mmHg 64%
10:00 +37°C° 0 mm 4 m/s 754 mmHg 53%
11:00 +37°C° 0 mm 5 m/s 753 mmHg 54%
12:00 +38°C° 0 mm 6 m/s 753 mmHg 54%
13:00 +38°C° 0 mm 6 m/s 752 mmHg 54%
14:00 +38°C° 0.1 mm 6 m/s 752 mmHg 57%
15:00 +36°C° 0.1 mm 6 m/s 751 mmHg 59%
16:00 +36°C° 0.1 mm 6 m/s 751 mmHg 62%
17:00 +34°C° 0.1 mm 6 m/s 751 mmHg 70%
18:00 +32°C° 0.1 mm 6 m/s 752 mmHg 79%
19:00 +29°C° 0.1 mm 5 m/s 752 mmHg 88%
20:00 +29°C° 0 mm 5 m/s 753 mmHg 89%
21:00 +29°C° 0 mm 5 m/s 753 mmHg 90%
22:00 +28°C° 0 mm 5 m/s 754 mmHg 92%
23:00 +28°C° 0 mm 5 m/s 754 mmHg 92%

Après-demain, 17 Juillet, Vendredi

Heure Température Précipitation Vent Pression Humidité
00:00 +28°C° 0 mm 5 m/s 753 mmHg 92%
01:00 +28°C° 0 mm 4 m/s 753 mmHg 92%
02:00 +28°C° 0 mm 3 m/s 753 mmHg 91%
03:00 +28°C° 0 mm 3 m/s 753 mmHg 91%
04:00 +27°C° 0 mm 2 m/s 753 mmHg 91%
05:00 +28°C° 0 mm 2 m/s 753 mmHg 87%
06:00 +29°C° 0 mm 2 m/s 754 mmHg 84%
07:00 +30°C° 0 mm 2 m/s 754 mmHg 80%
08:00 +32°C° 0 mm 2 m/s 754 mmHg 71%
09:00 +35°C° 0 mm 3 m/s 754 mmHg 63%
10:00 +37°C° 0 mm 3 m/s 754 mmHg 54%
11:00 +37°C° 0 mm 4 m/s 754 mmHg 52%
12:00 +38°C° 0 mm 4 m/s 753 mmHg 50%
13:00 +40°C° 0 mm 5 m/s 753 mmHg 47%
14:00 +39°C° 0 mm 5 m/s 752 mmHg 52%
15:00 +37°C° 0 mm 5 m/s 752 mmHg 56%
16:00 +35°C° 0 mm 6 m/s 752 mmHg 61%
17:00 +34°C° 0.1 mm 6 m/s 752 mmHg 70%
18:00 +32°C° 0.1 mm 5 m/s 752 mmHg 80%
19:00 +29°C° 0.1 mm 5 m/s 753 mmHg 89%
20:00 +29°C° 0.1 mm 5 m/s 753 mmHg 90%
21:00 +28°C° 0.1 mm 5 m/s 754 mmHg 90%
22:00 +28°C° 0.1 mm 5 m/s 754 mmHg 91%
23:00 +28°C° 0.2 mm 4 m/s 754 mmHg 91%

18 Juillet, Samedi

Heure Température Précipitation Vent Pression Humidité
00:00 +28°C° 0.2 mm 3 m/s 754 mmHg 91%
01:00 +28°C° 0.2 mm 3 m/s 754 mmHg 91%
02:00 +28°C° 0.2 mm 3 m/s 753 mmHg 91%
03:00 +27°C° 0.2 mm 2 m/s 753 mmHg 90%
04:00 +27°C° 0.2 mm 2 m/s 753 mmHg 89%
05:00 +28°C° 0 mm 2 m/s 754 mmHg 87%
06:00 +29°C° 0 mm 2 m/s 754 mmHg 85%
07:00 +29°C° 0 mm 2 m/s 754 mmHg 83%
08:00 +31°C° 0 mm 2 m/s 754 mmHg 74%
09:00 +34°C° 0 mm 3 m/s 754 mmHg 65%
10:00 +36°C° 0 mm 3 m/s 754 mmHg 56%
11:00 +37°C° 0 mm 4 m/s 754 mmHg 53%
12:00 +38°C° 0 mm 4 m/s 753 mmHg 49%
13:00 +40°C° 0 mm 5 m/s 753 mmHg 46%
14:00 +39°C° 0 mm 5 m/s 752 mmHg 49%
15:00 +39°C° 0 mm 6 m/s 752 mmHg 51%
16:00 +38°C° 0 mm 6 m/s 751 mmHg 53%
17:00 +35°C° 0 mm 6 m/s 752 mmHg 61%
18:00 +33°C° 0 mm 6 m/s 752 mmHg 69%
19:00 +32°C° 0 mm 5 m/s 752 mmHg 76%
20:00 +30°C° 0 mm 5 m/s 753 mmHg 79%
21:00 +29°C° 0 mm 5 m/s 754 mmHg 81%
22:00 +29°C° 0 mm 5 m/s 754 mmHg 83%
23:00 +29°C° 0 mm 4 m/s 754 mmHg 84%

19 Juillet, Dimanche

Heure Température Précipitation Vent Pression Humidité
00:00 +28°C° 0 mm 4 m/s 753 mmHg 84%
01:00 +28°C° 0 mm 4 m/s 753 mmHg 85%
02:00 +28°C° 0 mm 4 m/s 753 mmHg 85%
03:00 +28°C° 0 mm 3 m/s 753 mmHg 84%
04:00 +28°C° 0 mm 3 m/s 753 mmHg 84%
05:00 +28°C° 0 mm 3 m/s 753 mmHg 80%
06:00 +29°C° 0 mm 3 m/s 753 mmHg 77%
07:00 +30°C° 0 mm 3 m/s 753 mmHg 73%
08:00 +33°C° 0 mm 3 m/s 753 mmHg 66%
09:00 +35°C° 0 mm 4 m/s 753 mmHg 60%
10:00 +37°C° 0 mm 4 m/s 753 mmHg 54%
11:00 +37°C° 0 mm 5 m/s 753 mmHg 51%
12:00 +39°C° 0 mm 5 m/s 752 mmHg 49%
13:00 +40°C° 0 mm 6 m/s 751 mmHg 47%
14:00 +39°C° 0 mm 6 m/s 751 mmHg 50%
15:00 +38°C° 0 mm 6 m/s 751 mmHg 53%
16:00 +38°C° 0 mm 7 m/s 750 mmHg 56%
17:00 +35°C° 0.6 mm 7 m/s 751 mmHg 65%
18:00 +33°C° 0.6 mm 7 m/s 751 mmHg 73%
19:00 +30°C° 0.6 mm 7 m/s 752 mmHg 81%
20:00 +29°C° 0 mm 6 m/s 752 mmHg 83%
21:00 +29°C° 0 mm 5 m/s 753 mmHg 85%
22:00 +28°C° 0 mm 4 m/s 753 mmHg 87%
23:00 +28°C° 0 mm 4 m/s 753 mmHg 86%

20 Juillet, Lundi

Heure Température Précipitation Vent Pression Humidité
00:00 +28°C° 0 mm 4 m/s 753 mmHg 86%
01:00 +28°C° 0 mm 3 m/s 752 mmHg 85%
02:00 +28°C° 0 mm 3 m/s 752 mmHg 85%
03:00 +28°C° 0 mm 3 m/s 752 mmHg 85%
04:00 +28°C° 0 mm 3 m/s 752 mmHg 85%
05:00 +28°C° 0 mm 2 m/s 753 mmHg 82%
06:00 +29°C° 0 mm 2 m/s 753 mmHg 79%
07:00 +30°C° 0 mm 2 m/s 753 mmHg 76%
08:00 +33°C° 0.1 mm 3 m/s 753 mmHg 69%
09:00 +34°C° 0.1 mm 3 m/s 753 mmHg 62%
10:00 +36°C° 0.1 mm 3 m/s 753 mmHg 55%
11:00 +37°C° 0 mm 4 m/s 753 mmHg 52%
12:00 +37°C° 0 mm 4 m/s 752 mmHg 49%
13:00 +39°C° 0 mm 5 m/s 752 mmHg 46%
14:00 +39°C° 0 mm 6 m/s 751 mmHg 49%
15:00 +38°C° 0 mm 6 m/s 751 mmHg 51%
16:00 +38°C° 0 mm 7 m/s 751 mmHg 53%
17:00 +34°C° 0.2 mm 6 m/s 751 mmHg 64%
18:00 +32°C° 0.2 mm 6 m/s 752 mmHg 75%
19:00 +29°C° 0.2 mm 6 m/s 753 mmHg 86%
20:00 +29°C° 0.8 mm 5 m/s 753 mmHg 88%
21:00 +28°C° 0.8 mm 5 m/s 754 mmHg 89%
22:00 +28°C° 0.8 mm 5 m/s 754 mmHg 91%
23:00 +28°C° 0.6 mm 4 m/s 754 mmHg 90%
Voir plus